Location: Unspecified
(43.8044°N, 11.0278°E)
Time: 17:03:30
(UTC+01:00)

Cosmos 1674 - Visible Passes

Search period start: 28 March 2015 00:00
Search period end: 07 April 2015 01:00
Orbit: 507 x 535 km, 82.5° (Epoch: 28 March)

Date Brightness Start Highest point End Pass type
(mag) Time Alt. Az. Time Alt. Az. Time Alt. Az.
28 Mar 2.6 19:59:25 10° N 20:03:15 78° E 20:06:09 17° SSE visible
29 Mar 2.6 20:46:08 10° N 20:49:56 66° E 20:53:46 10° SSE visible
30 Mar 2.8 20:32:50 10° N 20:36:37 56° E 20:40:24 10° SSE visible
30 Mar 6.0 22:11:24 10° WNW 22:12:01 10° W 22:12:24 10° W visible
31 Mar 2.9 20:19:33 10° N 20:23:17 48° ENE 20:27:00 10° SSE visible
31 Mar 5.9 21:57:10 10° WNW 21:58:45 12° W 22:00:08 10° WSW visible
01 Apr 3.1 20:06:16 10° N 20:09:56 41° ENE 20:13:36 10° SSE visible
01 Apr 5.8 21:43:23 10° NW 21:45:27 14° W 21:47:23 10° WSW visible
02 Apr 5.7 21:29:42 10° NW 21:32:09 16° W 21:34:28 10° SW visible
03 Apr 5.6 21:16:06 10° NW 21:18:50 18° W 21:21:29 10° SW visible
04 Apr 5.4 21:02:32 10° NW 21:05:30 21° W 21:08:25 10° SW visible
05 Apr 5.2 20:49:00 10° NW 20:52:10 24° W 20:55:18 10° SW visible
06 Apr 5.0 20:35:28 10° NNW 20:38:49 28° W 20:42:08 10° SSW visible
